Skip Page Navigation
NASA JPL Caltech
NASA Logo - Jet Propulsion Laboratory + View the NASA Portal
+ Center for Near-Earth Object Studies
JPL Home Earth Solar System Stars & Galaxies Technology
JPL Solar System Dynamics
BODIES ORBITS EPHEMERIDES TOOLS PHYSICAL DATA DISCOVERY FAQ SITE MAP
JPL Small-Body Database Browser
Search: [ help ]  
469966 (2006 DF93)
Classification: Main-belt Asteroid          SPK-ID: 2469966
Ephemeris | Orbit Diagram | Orbital Elements | Mission Design | Physical Parameters | Discovery Circumstances ]

[ hide orbit diagram ]

For accurate long-term ephemerides, please instead use our Horizons system.This orbit viewer was implemented using two-body methods, and hence should not be used for determining accurate long-term trajectories (over several years or decades) or planetary encounter circumstances.


Orbital Elements at Epoch 2459200.5 (2020-Dec-17.0) TDB
Reference: JPL 10 (heliocentric ecliptic J2000)
 Element Value Uncertainty (1-sigma)   Units 
e .02860342585695529 1.0818e-07  
a 2.700946257433714 4.1252e-08 au
q 2.623689941415588 2.9491e-07 au
i 1.96566798095756 1.0312e-05 deg
node 341.6409390689157 0.00030321 deg
peri 243.0985765357327 0.00033987 deg
M 75.63679685007887 0.00015346 deg
tp 2458859.854254707609
(2020-Jan-11.35425471)
0.00068877 TDB
period 1621.333443672039
4.44
3.7144e-05
1.017e-07
d
yr
n .2220394585734705 5.0869e-09 deg/d
Q 2.77820257345184 4.2432e-08 au
  Orbit Determination Parameters
   # obs. used (total)      76  
   data-arc span      5612 days (15.36 yr)  
   first obs. used      2003-09-29  
   last obs. used      2019-02-09  
   planetary ephem.      DE441  
   SB-pert. ephem.      SB441-N16  
   condition code      0  
   norm. resid. RMS      .52046  
   source      ORB  
   producer      Otto Matic  
   solution date      2021-Apr-14 16:20:56  

Additional Information
 Earth MOID = 1.61326 au 
 Jupiter MOID = 2.19063 au 
 T_jup = 3.366 
[ show covariance matrix ]

Ephemeris | Orbit Diagram | Orbital Elements | Mission Design | Physical Parameters | Discovery Circumstances ]

Physical Parameter Table
Parameter Symbol Value Units Sigma Reference Notes
absolute magnitude H 17.5   n/a MPO336444  

469966 (2006 DF93)          Discovered 2006-Feb-24 by Spacewatch at Kitt Peak
Reference: Last Updated: 2016-08-22
Ephemeris | Orbit Diagram | Orbital Elements | Mission Design | Physical Parameters | Discovery Circumstances ]
ABOUT SSD CREDITS/AWARDS PRIVACY/COPYRIGHT GLOSSARY LINKS
FirstGov 2021-May-09 07:55 UT
(server date/time)  
NASA Home Page
Site Manager:   Ryan S. Park
Webmaster  Alan B. Chamberlin